Find Starlink 32122

NORAD ID: 60285 Int'l Des: 2024-132 Owner: SPXS Country: US Constellation: starlink operational
LEOCIRCULAR

Current View

Loading 3D Globe...

About Starlink 32122

Starlink 32122 (NORAD 60285) is a starlink constellation satellite (v2 mini) launched Jul 28, 2024 by SPXS of US. It operates in LEO, CIRCULAR orbit with a mass of 730.00 kg.

About Starlink 32122

Description loading...

Upcoming Passes

Passes for default location (London). Set your location on the main map for personalized predictions.

Altitude History

Loading altitude history...

Two-Line Element Set

1 60285U 24132H 26174.98049325 .00000119 00000-0 16133-4 0 9992
2 60285 53.1594 278.7485 0000929 86.7960 273.3147 15.30197921107831
Epoch: Jun 23, 2026 • Age: 38 hours

Current Status

Altitude 480.8 km
Velocity 7.63 km/s
Sub-Earth Point 51.50°N, 135.14°W
Launch Date Jul 28, 2024
Age 1.9 years
Type internet

Technical Details

Classification Payload
Mass 730.00 kg
Dry Mass 700.00 kg
Total Mass 730.00 kg
Length 0.30 m
Diameter 4.10 m
Span 29.00 m
Shape Box + pan
Manufacturer SPXS
Bus Type Starlink V2M
Phase Status In Orbit
Owner/State SPXS/US

Most Searched